Content
SEND FEEDBACK

Daily
Averages
Monthly
Summary
United States of America

MADERA, CALIFORNIA


Home > North America > United States > California
Elevation: 253 feet     Latitude: 36 59N     Longitude: 120 06W

WEATHER
 
SELECT A DAY
Number of Records: 150,891;   Date Range: 9/2/98 - 7/29/14
 
SHARE

PRINT THIS DATA

[ ← Previous Day ]
WEATHER ALMANAC - NOVEMBER 9, 2013
[ Next Day → ]
[ °C ]   °F
Weather ElementAverageHighLow
Temperature57 °F75 °F (2:53 pm)44.1 °F (6:53 am)
Dewpoint37 °F43 °F (4:53 pm)32 °F (1:53 am)
Humidity50.1 %74 % (9:53 pm)24 % (2:53 pm)
Barometer30.01 in30.04 in (7:53 am)29.97 in (2:53 pm)
Wind Speed3 mph5.8 mph (2:53 am)
Weather ElementAverage
Visibility7.7 mi
Wind DirectionESE (101.7 °)

Weather ElementTotal
Precipitation---
Heating Degree Days5.5 (Base 65)
Growing Degree Days9.6 (Base 50)
Averaged from 23 records on November 9, 2013
WEATHER CONDITIONS BREAKOUT
WIND DIRECTION BREAKOUT
WEATHER BY HOUR - NOVEMBER 9, 2013
[ °C ]   °F
Local TimeTemperatureDewpointHumidityBarometerVisibilityWind DirectionWind SpeedGust SpeedPrecipitationEventsConditions
1:53 AM46.0 °F32.0 °F58 %29.99 in10.0 miESE (110°)3.5 mphClear
2:53 AM46.0 °F32.0 °F58 %30.00 in10.0 miEast (90°)5.8 mphClear
3:53 AM45.0 °F33.1 °F63 %30.01 in10.0 miEast (100°)4.6 mphClear
4:53 AM45.0 °F32.0 °F60 %30.01 in10.0 miESE (110°)4.6 mphClear
5:53 AM46.0 °F33.1 °F61 %30.01 in10.0 miENE (70°)4.6 mphClear
6:53 AM44.1 °F33.1 °F65 %30.02 in10.0 miCalmClear
7:53 AM50.0 °F36.0 °F59 %30.04 in9.0 miCalmClear
8:53 AM55.9 °F36.0 °F47 %30.04 in6.0 miSE (130°)4.6 mphHaze
9:53 AM63.0 °F37.9 °F40 %30.04 in5.0 miESE (120°)4.6 mphHaze
10:53 AM69.1 °F37.9 °F32 %30.03 in6.0 miSSE (150°)4.6 mphHaze
11:53 AM71.1 °F39.0 °F31 %30.01 in6.0 miCalmHaze
12:53 PM73.0 °F37.9 °F28 %29.99 in6.0 miSSE (150°)4.6 mphHaze
1:53 PM73.9 °F37.0 °F26 %29.98 in6.0 miVariable3.5 mphHaze
2:53 PM75.0 °F36.0 °F24 %29.97 in6.0 miCalmHaze
3:53 PM73.9 °F36.0 °F25 %29.97 in7.0 miWSW (240°)3.5 mphClear
4:53 PM66.0 °F43.0 °F43 %29.97 in7.0 miWest (270°)4.6 mphClear
5:53 PM60.1 °F42.1 °F51 %29.99 in8.0 miNorth (350°)4.6 mphClear
6:53 PM55.9 °F43.0 °F62 %30.01 in7.0 miNW (310°)3.5 mphClear
7:53 PM54.0 °F39.0 °F57 %30.01 in7.0 miCalmClear
8:53 PM54.0 °F39.9 °F59 %30.02 in6.0 miEast (80°)3.5 mphHaze
9:53 PM48.0 °F39.9 °F74 %30.03 in6.0 miCalmHaze
10:53 PM50.0 °F39.0 °F66 %30.04 in8.0 miENE (60°)4.6 mphClear
11:53 PM46.9 °F35.1 °F63 %30.04 in10.0 miCalmClear
Hourly data recorded from KMAE, located miles away from Madera, California







STORIES FROM OUR PARTNERS